"startDT [UTC]","vpos","CH4 [ppm]","stdev(CH4) [ppm]","CO2 [ppm]","stdev(CO2) [ppm]","H2O_reported [%]","stdev(H2O_reported)","CavityPressure [torr]","CavityTemp [C]","OutletValve","CH4_dry [ppm]","CO2_dry [ppm]","DasTemp [C]","EtalonTemp [C]","WarmBoxTemp [C]","MPVPosition","T_ECpre [C]","T_EC1 [C]","T_EC2 [C]","p_inlet [hPa]","p_in [hPa]","p_out [hPa]","T_inlet [C]","RH_inlet [%]","dwpt_inlet [C]","T_vent [C]","RH_vent [%]","dwpt_vent [C]","flow_vent [l min-1]","flow_inlet [l min-1]","dwpt_sample [C]","T_room [C]"
2015-11-11 00:00:00,0.0,1.93469,0.00038,405.005,0.017,0.2369,0.0019,139.996,45.000,31371.82883,1.93922,406.165,29.999,45.071,45.000,0.00,0.09,-272.73,-272.78,-1,512,-935,14.8,10.6,-15.9,14.9,10.7,-15.6,5.73,2.10,-13.3,21.5
2015-11-11 00:01:00,0.0,1.93456,0.00035,405.011,0.034,0.2359,0.0018,139.999,45.000,31372.61734,1.93907,406.167,29.981,45.071,45.000,0.00,0.09,-272.72,-272.78,-1,512,-935,14.8,10.5,-15.9,14.9,10.7,-15.7,5.73,2.06,-13.3,21.5
2015-11-11 00:02:00,0.0,1.93452,0.00041,405.032,0.036,0.2364,0.0017,140.000,45.000,31372.21195,1.93906,406.189,29.976,45.071,45.000,0.00,0.09,-272.73,-272.77,-0,512,-935,14.7,10.5,-16.0,14.9,10.7,-15.7,5.73,1.99,-13.3,21.5
2015-11-11 00:03:00,0.0,1.93503,0.00025,405.087,0.029,0.2350,0.0015,139.998,45.000,31370.07381,1.93950,406.239,29.968,45.071,45.000,0.00,0.09,-272.73,-272.78,-0,512,-935,14.7,10.5,-16.0,14.9,10.7,-15.7,5.73,1.95,-13.3,21.5
2015-11-11 00:04:00,0.0,1.93507,0.00035,405.120,0.024,0.2351,0.0020,140.000,45.000,31370.33250,1.93959,406.271,29.968,45.071,45.000,0.00,0.09,-272.73,-272.78,-1,512,-935,14.7,10.5,-16.0,14.9,10.6,-15.7,5.73,1.97,-13.2,21.5
2015-11-11 00:05:00,0.0,1.93468,0.00027,405.063,0.028,0.2347,0.0018,139.998,45.000,31371.36428,1.93918,406.214,29.998,45.071,45.000,0.00,0.09,-272.72,-272.78,-1,512,-935,14.7,10.5,-16.0,14.9,10.6,-15.7,5.73,2.05,-13.3,21.5
2015-11-11 00:06:00,0.0,1.93468,0.00040,405.026,0.041,0.2345,0.0015,139.998,45.000,31372.46728,1.93918,406.176,29.992,45.071,45.000,0.00,0.09,-272.73,-272.78,-0,512,-934,14.6,10.5,-16.1,14.9,10.6,-15.7,5.73,2.09,-13.3,21.5
2015-11-11 00:07:00,0.0,1.93422,0.00038,405.013,0.033,0.2343,0.0016,140.000,45.000,31374.33285,1.93868,406.160,29.985,45.071,45.000,0.00,0.09,-272.73,-272.79,-0,512,-935,14.7,10.5,-16.0,14.9,10.6,-15.8,5.73,2.09,-13.2,21.5
2015-11-11 00:08:00,0.0,1.93456,0.00044,405.046,0.028,0.2342,0.0018,140.002,45.000,31372.39268,1.93907,406.193,29.997,45.071,45.000,0.00,0.09,-272.73,-272.78,-1,512,-935,14.7,10.5,-16.0,14.9,10.6,-15.8,5.73,2.03,-13.2,21.4
2015-11-11 00:09:00,0.0,1.93458,0.00029,405.036,0.023,0.2346,0.0015,140.000,45.000,31372.31234,1.93907,406.184,29.994,45.071,45.000,0.00,0.09,-272.72,-272.78,-1,512,-935,14.7,10.5,-16.0,14.9,10.6,-15.8,5.73,1.97,-13.3,21.4
2015-11-11 00:10:00,0.0,1.93464,0.00041,405.042,0.027,0.2346,0.0015,139.996,45.000,31373.72992,1.93914,406.192,29.958,45.071,45.000,0.00,0.09,-272.73,-272.79,-1,512,-935,14.8,10.4,-16.0,14.9,10.6,-15.8,5.73,1.95,-13.3,21.5
2015-11-11 00:11:00,0.0,1.93453,0.00034,405.051,0.043,0.2339,0.0015,140.001,45.000,31374.38264,1.93898,406.197,29.964,45.071,45.000,0.00,0.09,-272.73,-272.79,-0,512,-935,14.8,10.4,-16.1,14.9,10.6,-15.8,5.73,2.01,-13.3,21.5
2015-11-11 00:12:00,0.0,1.93439,0.00037,405.019,0.030,0.2338,0.0015,140.000,45.000,31375.53492,1.93889,406.165,29.997,45.071,45.000,0.00,0.09,-272.72,-272.79,-0,512,-935,14.8,10.4,-16.0,14.9,10.6,-15.8,5.73,2.08,-13.3,21.5
2015-11-11 00:13:00,0.0,1.93439,0.00043,405.009,0.029,0.2341,0.0020,139.998,45.000,31373.94579,1.93886,406.155,30.000,45.071,45.000,0.00,0.09,-272.73,-272.78,-1,512,-935,14.8,10.4,-16.0,14.9,10.6,-15.8,5.73,2.10,-13.3,21.5
2015-11-11 00:14:00,0.0,1.93479,0.00033,405.037,0.030,0.2335,0.0017,139.999,44.999,31371.50607,1.93927,406.183,30.000,45.071,45.000,0.00,0.09,-272.73,-272.78,-1,512,-935,14.9,10.4,-16.0,14.9,10.6,-15.8,5.73,2.07,-13.3,21.5
2015-11-11 00:15:00,0.0,1.93474,0.00040,405.010,0.039,0.2334,0.0019,139.999,45.000,31372.17699,1.93923,406.154,30.002,45.071,45.000,0.00,0.09,-272.72,-272.78,-1,512,-935,14.9,10.4,-16.0,14.9,10.6,-15.8,5.73,1.99,-13.2,21.5
2015-11-11 00:16:00,0.0,1.93494,0.00041,405.014,0.032,0.2334,0.0029,139.999,45.001,31371.19590,1.93938,406.157,30.001,45.071,45.000,0.00,0.09,-272.72,-272.78,-0,512,-935,14.9,10.4,-16.0,14.9,10.6,-15.8,5.73,1.95,-13.3,21.5
2015-11-11 00:17:00,0.0,1.93504,0.00041,405.063,0.037,0.2344,0.0014,140.000,45.000,31372.06767,1.93951,406.211,30.005,45.071,45.000,0.00,0.09,-272.73,-272.78,-0,512,-935,14.8,10.4,-16.1,14.9,10.6,-15.8,5.73,1.98,-13.3,21.5
2015-11-11 00:18:00,0.0,1.93469,0.00024,405.045,0.035,0.2343,0.0014,139.999,45.000,31374.11004,1.93922,406.192,30.000,45.071,45.000,0.00,0.09,-272.73,-272.78,-1,513,-935,14.8,10.4,-16.1,14.9,10.6,-15.8,5.73,2.04,-13.3,21.5
2015-11-11 00:19:00,0.0,1.93468,0.00043,405.063,0.028,0.2339,0.0022,140.001,45.000,31375.55687,1.93916,406.209,30.000,45.071,45.000,0.00,0.09,-272.72,-272.78,-1,512,-935,14.8,10.4,-16.1,14.9,10.6,-15.8,5.73,2.10,-13.2,21.5
2015-11-11 00:20:00,0.0,1.93503,0.00034,405.142,0.033,0.2336,0.0019,139.998,45.000,31371.96227,1.93949,406.287,30.000,45.071,45.000,0.00,0.09,-272.73,-272.78,-0,512,-935,14.8,10.4,-16.1,14.9,10.6,-15.8,5.73,2.09,-13.3,21.5
2015-11-11 00:21:00,0.0,1.93504,0.00033,405.162,0.029,0.2332,0.0014,139.996,45.000,31371.67370,1.93951,406.306,30.000,45.071,45.000,0.00,0.09,-272.73,-272.78,-0,512,-935,14.8,10.4,-16.1,14.9,10.5,-15.8,5.73,2.03,-13.3,21.5
2015-11-11 00:22:00,0.0,1.93508,0.00041,405.161,0.031,0.2340,0.0018,140.001,45.000,31374.50981,1.93959,406.306,30.003,45.071,45.000,0.00,0.09,-272.72,-272.78,-0,512,-935,14.8,10.4,-16.1,14.9,10.5,-15.8,5.73,1.96,-13.3,21.5
2015-11-11 00:23:00,0.0,1.93517,0.00037,405.171,0.033,0.2333,0.0017,139.999,45.000,31372.44256,1.93959,406.315,30.002,45.071,45.000,0.00,0.09,-272.73,-272.78,-1,512,-935,14.8,10.4,-16.1,14.9,10.5,-15.8,5.73,1.96,-13.3,21.5
2015-11-11 00:24:00,0.0,1.93545,0.00035,405.216,0.028,0.2318,0.0016,139.998,45.000,31371.16493,1.93991,406.351,30.011,45.071,45.000,0.00,0.09,-272.73,-272.79,-1,512,-935,14.8,10.4,-16.1,14.9,10.5,-15.9,5.73,2.02,-13.3,21.5
2015-11-11 00:25:00,0.0,1.93514,0.00030,405.186,0.032,0.2325,0.0014,139.998,45.000,31372.10812,1.93961,406.325,30.007,45.071,45.000,0.00,0.09,-272.73,-272.78,-0,512,-935,14.8,10.4,-16.1,14.9,10.5,-15.9,5.73,2.09,-13.3,21.5
2015-11-11 00:26:00,0.0,1.93499,0.00035,405.195,0.032,0.2316,0.0016,139.999,45.000,31375.36978,1.93942,406.330,30.028,45.071,45.000,0.00,0.09,-272.73,-272.78,-0,512,-935,14.8,10.3,-16.2,14.9,10.5,-15.9,5.73,2.10,-13.3,21.5
2015-11-11 00:27:00,0.0,1.93530,0.00044,405.207,0.033,0.2319,0.0017,140.000,45.000,31373.00992,1.93971,406.344,30.048,45.071,45.000,0.00,0.09,-272.74,-272.78,-1,512,-935,14.8,10.3,-16.2,14.9,10.5,-15.9,5.73,2.05,-13.3,21.5
2015-11-11 00:28:00,0.0,1.93542,0.00037,405.216,0.035,0.2321,0.0014,140.000,45.000,31372.88939,1.93987,406.354,30.057,45.071,45.000,0.00,0.09,-272.73,-272.78,-1,512,-935,14.8,10.3,-16.2,14.9,10.5,-15.9,5.73,1.97,-13.3,21.5
2015-11-11 00:29:00,0.0,1.93527,0.00034,405.200,0.038,0.2315,0.0014,139.997,45.000,31373.63279,1.93970,406.333,30.059,45.071,45.000,0.00,0.09,-272.72,-272.78,-1,512,-935,14.8,10.3,-16.2,14.9,10.5,-15.9,5.73,1.95,-13.3,21.6
2015-11-11 00:30:00,0.0,1.93516,0.00028,405.200,0.028,0.2314,0.0027,139.999,45.000,31375.33206,1.93959,406.334,30.063,45.070,45.000,0.00,0.09,-272.73,-272.79,-0,512,-935,14.8,10.3,-16.2,14.9,10.5,-15.9,5.73,1.99,-13.3,21.5
2015-11-11 00:31:00,0.0,1.93515,0.00045,405.191,0.037,0.2307,0.0015,139.998,45.000,31375.58724,1.93957,406.322,30.063,45.071,45.000,0.00,0.09,-272.73,-272.78,-0,512,-935,14.8,10.3,-16.2,14.9,10.4,-15.9,5.73,2.07,-13.2,21.5
2015-11-11 00:32:00,0.0,1.93509,0.00047,405.180,0.031,0.2311,0.0017,139.998,45.000,31376.89354,1.93952,406.313,30.063,45.071,45.000,0.00,0.09,-272.72,-272.78,-1,512,-935,14.8,10.3,-16.2,14.9,10.4,-15.9,5.73,2.11,-13.3,21.5
2015-11-11 00:33:00,0.0,1.93508,0.00031,405.174,0.032,0.2316,0.0014,139.999,44.999,31378.52894,1.93952,406.309,30.063,45.071,45.000,0.00,0.09,-272.73,-272.78,-1,512,-935,14.8,10.3,-16.2,14.9,10.4,-15.9,5.73,2.08,-13.3,21.5
2015-11-11 00:34:00,0.0,1.93475,0.00037,405.154,0.032,0.2311,0.0021,139.999,45.000,31378.14916,1.93918,406.288,30.068,45.071,45.000,0.00,0.09,-272.73,-272.79,-0,512,-935,14.8,10.3,-16.2,14.9,10.5,-15.9,5.73,1.99,-13.3,21.5
2015-11-11 00:35:00,0.0,1.93512,0.00025,405.166,0.046,0.2316,0.0015,139.999,45.000,31376.51899,1.93954,406.300,30.074,45.071,45.000,0.00,0.09,-272.72,-272.78,-0,512,-935,14.8,10.3,-16.2,14.9,10.4,-15.9,5.73,1.95,-13.3,21.5
2015-11-11 00:36:00,0.0,1.93515,0.00031,405.188,0.033,0.2313,0.0014,139.999,45.000,31375.41728,1.93958,406.323,30.069,45.071,45.000,0.00,0.09,-272.72,-272.78,-0,512,-935,14.8,10.3,-16.2,14.9,10.5,-16.0,5.73,1.98,-13.3,21.5
2015-11-11 00:37:00,0.0,1.93518,0.00039,405.196,0.024,0.2310,0.0018,139.998,45.000,31374.10351,1.93959,406.328,30.075,45.071,45.000,0.00,0.09,-272.73,-272.79,-1,512,-935,14.8,10.3,-16.2,14.9,10.4,-15.9,5.73,2.06,-13.3,21.5
2015-11-11 00:38:00,0.0,1.93524,0.00033,405.215,0.026,0.2309,0.0019,139.999,45.000,31374.21220,1.93968,406.346,30.071,45.071,45.000,0.00,0.09,-272.73,-272.78,-1,512,-935,14.8,10.3,-16.2,14.9,10.4,-15.9,5.73,2.10,-13.3,21.5
2015-11-11 00:39:00,0.0,1.93512,0.00023,405.192,0.032,0.2321,0.0013,140.000,45.000,31373.87202,1.93957,406.330,30.072,45.071,45.000,0.00,0.09,-272.73,-272.78,-0,512,-935,14.8,10.3,-16.2,14.9,10.5,-15.9,5.73,2.08,-13.3,21.5
2015-11-11 00:40:00,0.0,1.93494,0.00034,405.186,0.032,0.2320,0.0017,140.001,45.000,31375.89264,1.93939,406.323,30.071,45.071,45.000,0.00,0.09,-272.73,-272.78,-0,512,-935,14.8,10.3,-16.2,14.9,10.5,-15.9,5.73,2.01,-13.3,21.5
2015-11-11 00:41:00,0.0,1.93522,0.00028,405.218,0.031,0.2314,0.0018,139.997,45.000,31374.53024,1.93964,406.351,30.062,45.071,45.000,0.00,0.09,-272.74,-272.78,-1,512,-935,14.8,10.3,-16.2,14.9,10.4,-15.9,5.73,1.96,-13.2,21.5
2015-11-11 00:42:00,0.0,1.93527,0.00041,405.232,0.035,0.2309,0.0023,140.002,45.000,31375.47915,1.93969,406.363,30.018,45.071,45.000,0.00,0.09,-272.72,-272.78,-1,512,-935,14.8,10.3,-16.2,14.9,10.4,-15.9,5.73,1.97,-13.2,21.6
2015-11-11 00:43:00,0.0,1.93509,0.00037,405.223,0.029,0.2310,0.0015,139.997,45.000,31376.47260,1.93951,406.356,30.003,45.071,45.000,0.00,0.09,-272.73,-272.78,-0,512,-935,14.8,10.3,-16.2,14.9,10.4,-15.9,5.73,2.03,-13.2,21.5
2015-11-11 00:44:00,0.0,1.93504,0.00041,405.225,0.021,0.2311,0.0017,139.999,45.000,31377.35477,1.93948,406.357,30.009,45.071,45.000,0.00,0.09,-272.73,-272.79,-0,512,-935,14.8,10.3,-16.2,14.9,10.4,-15.9,5.73,2.08,-13.2,21.5
2015-11-11 00:45:00,0.0,1.93525,0.00041,405.263,0.033,0.2317,0.0015,139.996,45.000,31376.80137,1.93969,406.399,30.023,45.071,45.000,0.00,0.09,-272.73,-272.78,-0,512,-935,14.8,10.3,-16.2,14.9,10.4,-15.9,5.73,2.10,-13.3,21.5
2015-11-11 00:46:00,0.0,1.93531,0.00037,405.237,0.031,0.2310,0.0013,139.999,45.000,31376.94155,1.93972,406.370,30.001,45.071,45.000,0.00,0.09,-272.73,-272.78,-1,512,-935,14.8,10.3,-16.2,14.9,10.4,-15.9,5.73,2.05,-13.2,21.5
2015-11-11 00:47:00,0.0,1.93527,0.00030,405.214,0.037,0.2315,0.0018,139.999,45.000,31375.91143,1.93972,406.349,30.000,45.071,45.000,0.00,0.09,-272.73,-272.79,-1,512,-935,14.8,10.3,-16.2,14.9,10.4,-16.0,5.73,1.97,-13.3,21.5
2015-11-11 00:48:00,0.0,1.93527,0.00026,405.199,0.042,0.2317,0.0017,140.000,45.000,31376.37050,1.93969,406.336,30.039,45.071,45.000,0.00,0.09,-272.72,-272.79,-0,512,-935,14.8,10.3,-16.2,14.9,10.4,-15.9,5.73,1.95,-13.2,21.5
2015-11-11 00:49:00,0.0,1.93536,0.00034,405.213,0.023,0.2319,0.0016,139.999,45.000,31377.38218,1.93980,406.348,30.026,45.071,45.000,0.00,0.09,-272.72,-272.78,-0,512,-935,14.8,10.3,-16.2,14.9,10.4,-15.9,5.73,2.00,-13.3,21.5
2015-11-11 00:50:00,0.0,1.93541,0.00032,405.260,0.034,0.2308,0.0016,139.999,45.000,31377.50981,1.93985,406.391,30.033,45.071,45.000,0.00,0.09,-272.73,-272.79,-1,512,-935,14.8,10.3,-16.2,14.9,10.4,-15.9,5.73,2.07,-13.2,21.5
2015-11-11 00:51:00,0.0,1.93564,0.00036,405.268,0.032,0.2315,0.0014,140.000,45.000,31376.85121,1.94004,406.402,30.055,45.071,45.000,0.00,0.09,-272.73,-272.78,-1,512,-935,14.8,10.3,-16.2,14.9,10.4,-15.9,5.73,2.11,-13.2,21.5
2015-11-11 00:52:00,0.0,1.93545,0.00032,405.264,0.023,0.2316,0.0012,140.001,45.000,31375.80833,1.93990,406.400,30.063,45.071,45.000,0.00,0.09,-272.73,-272.78,-1,512,-935,14.8,10.3,-16.2,14.9,10.4,-15.9,5.73,2.07,-13.3,21.5
2015-11-11 00:53:00,0.0,1.93571,0.00047,405.281,0.035,0.2316,0.0015,139.999,45.000,31376.33028,1.94013,406.416,30.063,45.071,45.000,0.00,0.09,-272.73,-272.78,-0,512,-935,14.8,10.3,-16.2,14.9,10.4,-15.9,5.73,1.99,-13.2,21.6
2015-11-11 00:54:00,0.0,1.93581,0.00030,405.263,0.032,0.2311,0.0019,139.996,45.000,31378.01354,1.94024,406.394,30.060,45.071,45.000,0.00,0.09,-272.74,-272.79,-0,513,-935,14.8,10.3,-16.2,14.9,10.4,-15.9,5.73,1.95,-13.3,21.6
2015-11-11 00:55:00,0.0,1.93567,0.00037,405.313,0.027,0.2316,0.0021,140.001,45.000,31378.89095,1.94010,406.449,30.049,45.071,45.000,0.00,0.09,-272.73,-272.78,-1,513,-935,14.8,10.3,-16.2,14.9,10.4,-15.9,5.73,1.98,-13.2,21.5
2015-11-11 00:56:00,0.0,1.93590,0.00036,405.322,0.037,0.2317,0.0014,140.000,45.000,31378.68536,1.94035,406.458,30.056,45.071,45.000,0.00,0.09,-272.73,-272.78,-1,512,-935,14.8,10.2,-16.2,14.9,10.4,-15.9,5.73,2.05,-13.2,21.5
2015-11-11 00:57:00,0.0,1.93569,0.00034,405.316,0.035,0.2306,0.0017,140.000,45.000,31380.53887,1.94011,406.446,30.060,45.071,45.000,0.00,0.09,-272.74,-272.78,-1,512,-935,14.8,10.2,-16.2,14.9,10.4,-16.0,5.73,2.10,-13.2,21.5
2015-11-11 00:58:00,0.0,1.93567,0.00043,405.287,0.027,0.2306,0.0013,140.000,45.000,31379.17214,1.94013,406.419,30.062,45.071,45.000,0.00,0.09,-272.73,-272.78,-0,512,-935,14.8,10.2,-16.2,14.9,10.4,-16.0,5.73,2.09,-13.2,21.5
2015-11-11 00:59:00,0.0,1.93576,0.00039,405.296,0.031,0.2307,0.0018,140.004,45.000,31378.96969,1.94015,406.427,30.058,45.071,45.000,0.00,0.09,-272.73,-272.77,-0,513,-935,14.8,10.3,-16.2,14.9,10.4,-16.0,5.73,2.01,-13.3,21.5
2015-11-11 01:00:00,0.0,1.93591,0.00050,405.286,0.025,0.2315,0.0016,140.000,45.000,31378.47924,1.94034,406.421,30.033,45.071,45.000,0.00,0.09,-272.73,-272.78,-1,512,-935,14.8,10.3,-16.2,14.9,10.4,-15.9,5.73,1.96,-13.2,21.5
2015-11-11 01:01:00,0.0,1.93608,0.00039,405.306,0.034,0.2312,0.0015,139.998,45.000,31377.15779,1.94051,406.439,30.046,45.071,45.000,0.00,0.09,-272.73,-272.79,-1,512,-935,14.7,10.3,-16.3,14.9,10.4,-15.9,5.73,1.96,-13.3,21.5
2015-11-11 01:02:00,0.0,1.93575,0.00034,405.307,0.031,0.2311,0.0021,139.999,45.000,31378.99591,1.94017,406.440,30.060,45.071,45.000,0.00,0.09,-272.73,-272.78,-0,512,-935,14.8,10.3,-16.2,14.9,10.4,-15.9,5.73,2.02,-13.2,21.5
2015-11-11 01:03:00,0.0,1.93600,0.00030,405.306,0.027,0.2316,0.0013,139.999,45.000,31378.03066,1.94044,406.442,30.057,45.071,45.000,0.00,0.09,-272.72,-272.78,-0,512,-935,14.8,10.3,-16.2,14.9,10.4,-15.9,5.73,2.08,-13.2,21.5
2015-11-11 01:04:00,0.0,1.93589,0.00033,405.301,0.021,0.2315,0.0017,139.998,45.000,31378.24403,1.94034,406.436,30.046,45.071,45.000,0.00,0.09,-272.73,-272.79,-1,512,-935,14.8,10.3,-16.2,14.9,10.4,-15.9,5.73,2.10,-13.2,21.5
2015-11-11 01:05:00,0.0,1.93566,0.00031,405.312,0.032,0.2314,0.0018,140.001,45.000,31381.21572,1.94009,406.445,30.048,45.071,45.000,0.00,0.09,-272.73,-272.78,-1,512,-935,14.8,10.3,-16.2,14.9,10.4,-15.9,5.73,2.04,-13.2,21.6
2015-11-11 01:06:00,0.0,1.93574,0.00040,405.278,0.043,0.2312,0.0015,140.001,45.000,31381.38699,1.94017,406.412,30.039,45.071,45.000,0.00,0.09,-272.73,-272.78,-1,512,-935,14.8,10.3,-16.2,15.0,10.4,-15.9,5.73,1.97,-13.3,21.6
2015-11-11 01:07:00,0.0,1.93573,0.00037,405.342,0.025,0.2309,0.0016,140.001,45.000,31381.41901,1.94015,406.473,30.020,45.071,45.000,0.00,0.09,-272.73,-272.79,-0,512,-935,14.8,10.3,-16.2,14.9,10.4,-15.9,5.73,1.95,-13.2,21.6
2015-11-11 01:08:00,0.0,1.93584,0.00053,405.345,0.037,0.2309,0.0021,139.999,45.000,31380.64607,1.94026,406.475,30.013,45.071,45.000,0.00,0.09,-272.73,-272.78,-0,513,-935,14.8,10.3,-16.2,14.9,10.4,-15.9,5.73,1.99,-13.2,21.5
2015-11-11 01:09:00,0.0,1.93629,0.00045,405.349,0.038,0.2320,0.0011,140.001,45.000,31381.32937,1.94067,406.487,30.017,45.071,45.000,0.00,0.09,-272.72,-272.78,-1,513,-935,14.8,10.3,-16.2,15.0,10.4,-15.9,5.73,2.06,-13.2,21.6
2015-11-11 01:10:00,0.0,1.93608,0.00045,405.403,0.025,0.2313,0.0014,140.000,45.000,31382.12725,1.94055,406.537,30.008,45.071,45.000,0.00,0.09,-272.73,-272.78,-1,512,-935,14.8,10.3,-16.2,14.9,10.4,-15.9,5.73,2.11,-13.2,21.6
2015-11-11 01:11:00,0.0,1.93612,0.00033,405.383,0.037,0.2314,0.0016,140.000,45.000,31381.98088,1.94056,406.519,30.016,45.071,45.000,0.00,0.09,-272.74,-272.79,-1,512,-935,14.8,10.3,-16.2,14.9,10.4,-15.9,5.73,2.08,-13.2,21.5
2015-11-11 01:12:00,0.0,1.93623,0.00028,405.376,0.035,0.2315,0.0017,140.001,45.000,31378.63238,1.94068,406.510,30.020,45.071,45.000,0.00,0.09,-272.73,-272.78,-0,512,-935,14.8,10.3,-16.2,14.9,10.4,-15.9,5.73,2.00,-13.2,21.5
2015-11-11 01:13:00,0.0,1.93605,0.00038,405.347,0.029,0.2316,0.0016,140.000,45.000,31379.09134,1.94048,406.483,30.029,45.071,45.000,0.00,0.09,-272.72,-272.78,-1,513,-935,14.8,10.3,-16.2,14.9,10.4,-15.9,5.73,1.95,-13.2,21.5
2015-11-11 01:14:00,0.0,1.93620,0.00035,405.392,0.038,0.2308,0.0013,139.997,45.000,31379.26634,1.94062,406.524,30.044,45.071,45.000,0.00,0.09,-272.73,-272.79,-1,512,-935,14.8,10.3,-16.2,14.9,10.4,-15.9,5.73,1.97,-13.2,21.6
2015-11-11 01:15:00,0.0,1.93603,0.00030,405.330,0.035,0.2319,0.0016,139.999,45.000,31379.19140,1.94046,406.467,30.035,45.071,45.000,0.00,0.09,-272.73,-272.78,-1,512,-935,14.8,10.3,-16.2,14.9,10.4,-15.9,5.73,2.05,-13.2,21.5
2015-11-11 01:16:00,0.0,1.93632,0.00037,405.367,0.039,0.2313,0.0017,140.000,45.000,31379.05512,1.94076,406.500,30.008,45.071,45.000,0.00,0.09,-272.73,-272.78,-0,512,-935,14.8,10.3,-16.2,14.9,10.4,-15.9,5.73,2.10,-13.2,21.6
2015-11-11 01:17:00,0.0,1.93629,0.00034,405.344,0.035,0.2322,0.0016,140.000,45.000,31381.21181,1.94075,406.484,30.037,45.071,45.000,0.00,0.09,-272.73,-272.79,-0,512,-935,14.8,10.3,-16.2,14.9,10.4,-15.9,5.73,2.08,-13.2,21.6
2015-11-11 01:18:00,0.0,1.93616,0.00034,405.282,0.024,0.2314,0.0013,139.996,45.000,31380.99260,1.94057,406.416,30.053,45.071,45.000,0.00,0.09,-272.74,-272.79,-1,512,-935,14.8,10.3,-16.1,14.9,10.4,-15.9,5.73,2.01,-13.2,21.5
2015-11-11 01:19:00,0.0,1.93629,0.00033,405.292,0.023,0.2324,0.0019,140.001,45.000,31381.85575,1.94075,406.431,30.049,45.071,45.000,0.00,0.09,-272.72,-272.78,-1,512,-935,14.8,10.3,-16.1,14.9,10.5,-15.9,5.73,1.95,-13.3,21.6
2015-11-11 01:20:00,0.0,1.93638,0.00038,405.334,0.034,0.2319,0.0015,139.999,45.000,31380.11559,1.94083,406.470,30.055,45.071,45.000,0.00,0.09,-272.73,-272.78,-1,512,-935,14.8,10.3,-16.1,14.9,10.4,-15.9,5.73,1.97,-13.3,21.6
2015-11-11 01:21:00,0.0,1.93655,0.00030,405.348,0.034,0.2318,0.0019,140.002,45.000,31380.43795,1.94098,406.485,30.052,45.070,45.000,0.00,0.09,-272.73,-272.79,-0,512,-935,14.8,10.3,-16.1,14.9,10.5,-15.9,5.73,2.03,-13.2,21.5
2015-11-11 01:22:00,0.0,1.93620,0.00047,405.338,0.032,0.2320,0.0019,139.999,45.000,31380.86508,1.94067,406.474,30.042,45.071,45.000,0.00,0.09,-272.73,-272.78,-1,513,-935,14.8,10.3,-16.1,14.9,10.5,-15.9,5.73,2.11,-13.3,21.5
2015-11-11 01:23:00,0.0,1.93629,0.00038,405.343,0.025,0.2323,0.0019,139.999,45.000,31379.78220,1.94074,406.482,30.055,45.071,45.000,0.00,0.09,-272.73,-272.78,-1,513,-935,14.8,10.3,-16.1,14.9,10.5,-15.9,5.73,2.09,-13.2,21.5
2015-11-11 01:24:00,0.0,1.93642,0.00050,405.327,0.027,0.2324,0.0013,139.999,45.000,31377.59219,1.94087,406.466,30.046,45.071,45.000,0.00,0.09,-272.73,-272.78,-1,512,-935,14.8,10.3,-16.1,14.9,10.5,-15.9,5.73,2.02,-13.3,21.6
2015-11-11 01:25:00,0.0,1.93664,0.00032,405.343,0.029,0.2331,0.0018,140.001,45.000,31377.85621,1.94111,406.486,30.057,45.071,45.000,0.00,0.09,-272.73,-272.78,-0,512,-935,14.8,10.4,-16.1,14.9,10.5,-15.8,5.73,1.95,-13.3,21.6
2015-11-11 01:26:00,0.0,1.93642,0.00041,405.338,0.035,0.2332,0.0020,139.999,45.000,31379.40382,1.94089,406.480,30.050,45.071,45.000,0.00,0.09,-272.72,-272.78,-0,512,-935,14.8,10.4,-16.1,14.9,10.5,-15.8,5.73,1.96,-13.3,21.6
2015-11-11 01:27:00,0.0,1.93648,0.00048,405.391,0.031,0.2331,0.0018,140.000,45.000,31380.72120,1.94092,406.534,30.048,45.071,45.000,0.00,0.09,-272.73,-272.79,-1,513,-935,14.8,10.4,-16.1,14.9,10.5,-15.8,5.73,2.04,-13.3,21.6
2015-11-11 01:28:00,0.0,1.93656,0.00036,405.373,0.035,0.2333,0.0016,139.999,45.000,31380.81696,1.94104,406.517,30.054,45.071,45.000,0.00,0.09,-272.73,-272.79,-1,512,-935,14.8,10.4,-16.1,14.9,10.5,-15.8,5.73,2.10,-13.3,21.5
2015-11-11 01:29:00,0.0,1.93653,0.00037,405.397,0.039,0.2324,0.0014,140.001,45.000,31380.58505,1.94096,406.535,30.053,45.071,45.000,0.00,0.09,-272.72,-272.78,-1,512,-935,14.8,10.3,-16.1,14.9,10.5,-15.8,5.73,2.10,-13.2,21.5
2015-11-11 01:30:00,0.0,1.93653,0.00035,405.348,0.040,0.2323,0.0019,139.998,45.000,31381.36095,1.94102,406.490,30.019,45.071,45.000,0.00,0.09,-272.72,-272.78,-0,513,-935,14.9,10.3,-16.1,15.0,10.5,-15.8,5.73,2.02,-13.3,21.5
2015-11-11 01:31:00,0.0,1.93633,0.00037,405.325,0.023,0.2325,0.0014,139.997,45.000,31382.56168,1.94078,406.465,30.042,45.071,45.000,0.00,0.09,-272.73,-272.79,-1,513,-935,14.9,10.3,-16.1,15.0,10.5,-15.8,5.73,1.96,-13.3,21.6
2015-11-11 01:32:00,0.0,1.93642,0.00037,405.350,0.039,0.2322,0.0018,140.000,45.000,31384.46035,1.94089,406.487,30.040,45.071,45.000,0.00,0.09,-272.73,-272.78,-1,513,-935,14.9,10.3,-16.1,15.0,10.5,-15.8,5.73,1.96,-13.3,21.6
2015-11-11 01:33:00,0.0,1.93643,0.00048,405.349,0.037,0.2325,0.0017,140.002,45.000,31384.08856,1.94089,406.491,30.033,45.071,45.000,0.00,0.09,-272.73,-272.78,-1,512,-935,14.9,10.3,-16.1,15.0,10.5,-15.8,5.73,2.02,-13.3,21.6
2015-11-11 01:34:00,0.0,1.93640,0.00042,405.344,0.030,0.2334,0.0015,140.000,45.000,31383.47474,1.94084,406.487,30.035,45.071,45.000,0.00,0.09,-272.73,-272.78,-0,513,-935,14.9,10.3,-16.1,15.0,10.5,-15.8,5.73,2.09,-13.2,21.6
2015-11-11 01:35:00,0.0,1.93627,0.00037,405.335,0.031,0.2325,0.0015,139.999,45.000,31380.94814,1.94072,406.475,30.023,45.071,45.000,0.00,0.09,-272.74,-272.78,-0,513,-935,14.8,10.3,-16.1,15.0,10.5,-15.8,5.73,2.10,-13.3,21.5
2015-11-11 01:36:00,0.0,1.93647,0.00043,405.339,0.037,0.2330,0.0016,139.998,45.000,31381.19919,1.94094,406.481,30.011,45.071,45.000,0.00,0.09,-272.73,-272.78,-1,513,-935,14.8,10.3,-16.1,15.0,10.5,-15.8,5.73,2.04,-13.3,21.5
2015-11-11 01:37:00,0.0,1.93645,0.00033,405.359,0.027,0.2331,0.0019,139.999,45.000,31382.09802,1.94092,406.502,30.005,45.071,45.000,0.00,0.09,-272.73,-272.78,-1,512,-935,14.8,10.3,-16.1,15.0,10.5,-15.8,5.73,1.96,-13.3,21.5
2015-11-11 01:38:00,0.0,1.93652,0.00040,405.380,0.037,0.2328,0.0018,140.000,45.001,31381.83571,1.94099,406.522,30.007,45.071,45.000,0.00,0.09,-272.73,-272.79,-1,512,-935,14.8,10.3,-16.1,14.9,10.5,-15.9,5.73,1.95,-13.3,21.5
2015-11-11 01:39:00,0.0,1.93622,0.00039,405.342,0.036,0.2330,0.0017,139.999,45.001,31385.04056,1.94070,406.484,30.009,45.071,45.000,0.00,0.09,-272.73,-272.78,-0,512,-935,14.8,10.4,-16.1,15.0,10.5,-15.8,5.73,2.01,-13.3,21.5
2015-11-11 01:40:00,0.0,1.93665,0.00036,405.420,0.047,0.2329,0.0016,139.998,45.000,31382.26600,1.94108,406.561,30.017,45.071,45.000,0.00,0.09,-272.72,-272.78,-1,513,-935,14.8,10.3,-16.1,15.0,10.5,-15.8,5.73,2.09,-13.3,21.5
2015-11-11 01:41:00,0.0,1.93664,0.00043,405.442,0.052,0.2323,0.0017,140.000,45.000,31383.46078,1.94106,406.580,30.015,45.071,45.000,0.00,0.09,-272.73,-272.79,-1,512,-935,14.8,10.3,-16.1,15.0,10.5,-15.8,5.73,2.10,-13.3,21.5
2015-11-11 01:42:00,0.0,1.93689,0.00035,405.456,0.024,0.2320,0.0016,139.999,44.999,31383.90981,1.94135,406.594,30.025,45.071,45.000,0.00,0.09,-272.73,-272.79,-1,512,-935,14.8,10.3,-16.1,15.0,10.5,-15.8,5.73,2.04,-13.3,21.6
2015-11-11 01:43:00,0.0,1.93693,0.00038,405.460,0.032,0.2317,0.0022,139.997,45.000,31381.72595,1.94135,406.597,30.003,45.071,45.000,0.00,0.09,-272.73,-272.78,-0,513,-935,14.9,10.3,-16.1,15.0,10.4,-15.9,5.73,1.97,-13.3,21.6
2015-11-11 01:44:00,0.0,1.93677,0.00039,405.461,0.046,0.2312,0.0014,140.000,45.000,31382.64769,1.94122,406.597,30.000,45.071,45.000,0.00,0.09,-272.73,-272.79,-1,513,-935,14.9,10.3,-16.2,15.0,10.4,-15.9,5.73,1.95,-13.3,21.6